Tracking 20093 objects as of 14-Dec-2019
HD Live streaming from Space Station
objects crossing your sky now

COSMOS 2251 DEB

Track COSMOS 2251 DEB now!
10-day predictions


NORAD ID: 34610
Int'l Code: 1993-036WF
Perigee: 762.8 km
Apogee: 1,069.2 km
Inclination: 74.0 °
Period: 103.2 minutes
Semi major axis: 7286 km
RCS: 0.0054 m2 (small)
Launch date: June 16, 1993
Source: Commonwealth of Independent States (former USSR) (CIS)
Launch site: PLESETSK MISSILE AND SPACE COMPLEX (PKMTR)

Note: This is SATELLITE DEBRIS
aabbcc
Your satellite tracking list
Your tracking list is empty




NASA's NSSDC Master Catalog

Two Line Element Set (TLE):
1 34610U 93036WF  19347.70610293 +.00000636 +00000-0 +40249-3 0  9994
2 34610 074.0267 094.2744 0210253 000.8490 359.2955 13.95667511549141
Source of the keplerian elements: AFSPC